Flag for Russia Weather past 2 weeks in Voronezh, Russia

Now
34 °F

Low clouds.


Feels Like: 24 °F
Forecast: 37 / 46 °F
Wind: 15 mph from Southeast

Location: Voronez

Current Time: Apr 1, 2015 at 5:58:54 PM

Latest Report: Apr 1, 2015 at 5:00 PM


Visibility: N/A

Pressure: 29.71 "Hg

Humidity: 87%

Dew point: 30 °F

Location of VoronezhLocation

Historic Weather in Voronezh — Graph

°F

Voronezh temperature yesterday

Maximum temperature yesterday: 43 °F (at 3:00 PM)
Minimum temperature yesterday: 30 °F (at 7:00 AM)
Average temperature yesterday: 36 °F

Past Weeks' High & Low Weather Summary

 TemperatureHumidityPressure
High59 °F (Mar 26, 2:00 PM)100% (Apr 1, 8:00 AM)30.77 "Hg (Apr 1, 8:00 AM)
Low19 °F (Mar 23, 5:30 AM)23% (Mar 25, 3:00 PM)29.65 "Hg (Mar 26, 9:00 AM)
Average35 °F55%30.16 "Hg
* Reported Mar 17 4:00 PM — Apr 1 4:30 PM, Voronezh, Weather by CustomWeather, © 2015

Note: Actual official high and low records may vary slightly from our data, if they occured in-between our weather recording intervals... More about our weather records

Advertising

Voronezh weather history for previous 24 hours

 ConditionsComfort  
Time TempWeatherWind HumidityBarometerVisibility
4:30 PM
Wed, Apr 1
34 °FLow clouds.15 mph87%29.71 "HgN/A
4:00 PM34 °FLow clouds.17 mph87%29.71 "HgN/A
3:30 PM34 °FLow clouds.17 mph87%29.71 "HgN/A
3:00 PM34 °FLow clouds.17 mph81%29.71 "HgN/A
2:30 PM32 °FLow clouds.17 mph87%29.71 "Hg6 mi
2:00 PM32 °FLow clouds.17 mph87%29.71 "HgN/A
1:30 PM32 °FLow clouds.17 mph87%29.71 "Hg6 mi
1:00 PM32 °FLow clouds.20 mph87%29.71 "Hg6 mi
12:30 PM32 °FLow clouds.17 mph93%29.71 "Hg6 mi
12:00 PM32 °FLight snow. Low clouds.20 mph93%29.74 "Hg6 mi
11:30 AM32 °FOvercast.20 mph93%29.74 "Hg6 mi
11:00 AM32 °FLight snow. Ice fog.15 mph93%29.74 "Hg3 mi
10:30 AM32 °FSnow. Ice fog.17 mph93%29.74 "Hg1 mi
10:00 AM32 °FHeavy snow. Ice fog.15 mph93%29.74 "Hg1 mi
9:30 AM32 °FSnow. Ice fog.15 mph93%29.74 "Hg1 mi
9:00 AM32 °FSnow. Ice fog.17 mph93%29.74 "Hg1 mi
8:30 AM32 °FLight snow. Ice fog.20 mph93%29.74 "Hg2 mi
8:00 AM30 °FLight snow. Ice fog.20 mph100%29.71 "Hg2 mi
7:30 AM30 °FLight snow. Ice fog.20 mph93%29.71 "Hg1 mi
7:00 AM30 °FLight snow. Ice fog.17 mph93%29.71 "Hg1 mi
6:30 AM30 °FHeavy snow. Low clouds.20 mph93%29.71 "Hg1 mi
6:00 AM30 °FHeavy snow. Low clouds.17 mph93%29.71 "Hg1 mi
5:30 AM30 °FHeavy snow. Low clouds.17 mph93%29.74 "Hg1 mi
5:00 AM30 °FHeavy snow. Low clouds.17 mph93%29.74 "Hg1 mi
4:30 AM30 °FSnow. Low clouds.15 mph93%29.74 "Hg1 mi
4:00 AM30 °FSnow. Low clouds.15 mph93%29.74 "Hg1 mi
3:30 AM30 °FHeavy snow. Low clouds.15 mph93%29.74 "Hg1 mi
3:00 AM30 °FSnow. Low clouds.17 mph86%29.74 "Hg1 mi
2:30 AM34 °FLight snow. Overcast.17 mph60%29.74 "Hg2 mi
2:00 AM36 °FLight snow. Overcast.17 mph52%29.74 "Hg2 mi
1:30 AM36 °FOvercast.20 mph52%29.74 "Hg4 mi
1:00 AM36 °FOvercast.20 mph52%29.74 "Hg4 mi
12:30 AM36 °FOvercast.24 mph56%29.74 "Hg4 mi
12:00 AM36 °FOvercast.24 mph56%29.77 "Hg4 mi
11:30 PM
Tue, Mar 31
36 °FOvercast.24 mph52%29.77 "Hg4 mi
11:00 PM37 °FOvercast.24 mph45%29.77 "Hg4 mi
10:30 PM37 °FOvercast.24 mph48%29.80 "Hg4 mi
10:00 PM37 °FOvercast.24 mph52%29.80 "Hg4 mi
9:30 PM37 °FOvercast.22 mph52%29.83 "Hg4 mi
9:00 PM37 °FOvercast.22 mph52%29.83 "Hg4 mi
8:30 PM39 °FOvercast.24 mph48%29.83 "Hg4 mi
8:00 PM39 °FOvercast.20 mph42%29.83 "Hg4 mi
7:30 PM41 °FOvercast.20 mph36%29.83 "Hg4 mi
7:00 PM41 °FOvercast.20 mph33%29.83 "Hg4 mi
6:30 PM41 °FOvercast.20 mph31%29.83 "Hg4 mi
6:00 PM43 °FOvercast.20 mph31%29.86 "Hg4 mi
5:30 PM43 °FOvercast.17 mph34%29.86 "Hg4 mi
5:00 PM43 °FPartly sunny.20 mph34%29.86 "Hg4 mi
Weather by CustomWeather, © 2015

See weather overviewHow to use our weather pages